Location: Kumla
(59.1265°N, 15.1401°E)
Time: 12:20:35
(UTC+01:00)

Vanguard 3 - Pass Details

Date: 08 December 2023
Orbit: 508 x 3239 km, 33.4° (Epoch: 03 March)

Event Time Altitude Azimuth Distance (km) Brightness Sun altitude
Rises 20:36:37 0° 213° (SSW) 6,495 11.8 -40.1°
Reaches altitude 10° 20:45:00 10° 190° (S) 4,807 10.9 -41.1°
Enters shadow 20:45:03 10° 190° (S) 4,797 10.9 -41.1°
Maximum altitude 20:49:19 12° 171° (S) 4,198 - -41.6°
Drops below altitude 10° 20:53:01 10° 150° (SSE) 3,989 - -42.0°
Sets 20:58:17 0° 123° (ESE) 4,360 - -42.6°
